Location: Castifao
(42.5040°N, 9.1124°E)
Time: 04:26:55
(UTC+00:00)

Cosmos 1269 Rocket - Pass Details

Date: 23 January 2020
Orbit: 773 x 779 km, 74.1° (Epoch: 18 February)

Event Time Altitude Azimuth Distance (km) Brightness Sun altitude
Rises 17:17:58 0° 339° (NNW) 3,259 7.3 -9.9°
Reaches altitude 10° 17:20:21 10° 339° (NNW) 2,328 6.6 -10.3°
Maximum altitude 17:25:39 87° 254° (WSW) 781 4.1 -11.3°
Drops below altitude 10° 17:30:55 10° 163° (SSE) 2,315 6.5 -12.2°
Sets 17:33:17 0° 163° (SSE) 3,239 7.2 -12.6°
